Location: Clarion
(42.7316°N, 93.7330°W)
Time: 09:02:29
(UTC+00:00)

H-2A R/B - Pass Details

Date: 22 April 2026
Orbit: 478 x 548 km, 98.3° (Epoch: 17 May)

Event Time Altitude Azimuth Distance (km) Brightness Sun altitude
Exits shadow 08:26:54 20° 92° (E) 1,178 4.3 -27.1°
Maximum altitude 08:27:53 23° 68° (ENE) 1,092 4.4 -27.0°
Drops below altitude 10° 08:30:46 10° 15° (NNE) 1,678 5.6 -26.7°
Sets 08:33:06 0° 1° (N) 2,555 6.5 -26.4°
